Flight Briefing for CPX671

Departure Arrival
Tallahassee International Airport (KTLH)
Click to view FAA NOTAMS
Miami International Airport (KMIA)
Click to view FAA NOTAMS
Departure Time Arrival Time
N/A N/A
Aircraft Distance
SF340AF 350nm
Departure METAR Arrival METAR
KTLH 271053Z 00000KT 10SM BCFG SCT070 22/21 A3006 RMK AO2 SLP178 T02170211 KMIA 271053Z 07007KT 10SM FEW024 26/20 A3005 RMK AO2 SLP175 T02610200
Suggested Route
HEVVN NICKI JUULI SSCOT5


View recent IFR Routes data
Notes



Charts and Procedures

Charts for KTLH
No chart available
Charts for KMIA
No chart available

Windy.com Weather Map